Вернуться в каталог

GLOBALSTAR M084

АктивенСвязьLEO
NORAD 38040·PAYLOAD·🇺🇸 United States

Запущен Dec 28, 2011 с Baikonur Cosmodrome

Loading…

Ближайшие Пролёты (ближайшие 24 часа)

TLE

СвежийSource: Space-Track

Эпоха: Sep 14, 2026, 07:05 UTC

1 38040U 11080A   26257.29537220 -.00000098  00000-0  31323-4 0  9991
2 38040  51.9994 106.0049 0000526  70.0884 101.4520 12.62264121680019

Отслеживайте GLOBALSTAR M084 в реальном времени с AllMySat

Download on the App Store